Showing default

IRIDIUM 148, 43255

Orbit data source: Space-Track

IRIDIUM 148, 43255 is a payload satellite owned by Iridium (US) in LEO that was launched on Fri, 30 Mar 2018 UTC via an FALCON 9 launch vehicle from the Air Force Western Test Range (AFWTR). Payload-class satellites include a variety of spacecraft equipped with specific instruments for various scientific and technological missions. These include communications satellites like Starlink; space stations such as the ISS; scientific satellites like the Hubble; Earth observation satellites from companies like Planet Labs, Umbra, and HawkEye 360; GPS; miniature CubeSats for education and research; and military/defense satellites.

Loading next visibility...
Identifier
43255, 2018-030G
Orbit
LEO
Country
Flag of USUS
Related business
Manufacturer
OATK SSG Gilbert
Mission
Operational Commercial Communications
Bus & Motor
ELITEBUS, Unknown motor
Mass
860 kg wet, 700 kg dry
Launch date (UTC)
2018-03-30 (7 years ago)
Launch vehicle
FALCON 9
Launch site
Air Force Western Test Range (AFWTR)
Object type
Payload
Rocket body
Debris
Shape & HBR
Trap Box + 2 Pan, 4.7 m
Radar Cross Section
14.423 m², Large (>1 m²)

Expand to show TLE details & history
Last TLE update: 21 hours ago

TLE from 21 hours ago
0 IRIDIUM 148
1 43255U 18030G   25260.90503820  .00000165  00000-0  51757-4 0  9994
2 43255  86.3960  44.2644 0002056  88.9373 271.2059 14.34217637391140
Epoch: 2025-09-17T21:43Z
TLE epoch observation values (Epoch: 2025-09-17T21:43:15.3Z)
Latitude
0.00004°
Longitude
81.37637°
Altitude
780.688 km
Speed
7.464 km/s
True Right ascension
02h 57m 03s
True Declination
0° 00' 00"
Sunlit
Object was in full shadow at epoch
Visualization orbit readout
Latitude
Unknown
Longitude
Unknown
Altitude
Unknown
Speed
Unknown
Apparent Right ascension
Unknown
Apparent Declination
Unknown
Sunlit
N/A
Visualization observer readout
Local Sidereal Time
11:21:29
Azimuth
Unknown
Elevation
Unknown
Doppler factor
Unknown
Orbital elements
Apogee altitude
776.103 km
Perigee altitude
773.161 km
Semi-major axis
7,152.769 km
Eccentricity
0.00021
Inclination
86.396°
RAAN
44.2644°
Arg. of periapsis
88.9373°
True anomaly
271.18235°
Mean anomaly
271.2059°
Eccentric anomaly
271.19412°
Mean motion
3.58783 °/min
Orbital period
100.34 mins
BSTAR
0.000051757
Loading maneuver chart data...
Computing Atmospheric mass density...
Loading historical data...
Loading historical data...
Loading historical data...
Loading historical data...
Loading historical data...
Loading historical data...
Loading historical data...

Documentation

Showing up to 5 results
|